Change the Weather History Date:

Saturday, March 9, 2013

  Actual Average Record
Temperature  
Mean Temperature 54 °F -  
Max Temperature 57 °F 59 °F 82 °F (2014)
Min Temperature 50 °F 47 °F 44 °F (2002)
Degree Days  
Heating Degree Days 12    
Growing Degree Days 4 (Base 50)    
Moisture  
Dew Point 43 °F    
Average Humidity 68    
Maximum Humidity 89    
Minimum Humidity 51    
Precipitation  
Precipitation 0.05 in - - ()
Sea Level Pressure  
Sea Level Pressure 30.12 in    
Wind  
Wind Speed 5 mph (West)    
Max Wind Speed 10 mph    
Max Gust Speed 17 mph    
Visibility 10 miles    
Events Rain    
Averages and records for this station are not official NWS values.
T = Trace of Precipitation, MM = Missing Value Source: NWS Daily Summary

Daily Weather History Graph

Daily Weather History Graph

Search for Another Location

Airport or City:

Trip Planner

Search our weather history database for the weather conditions in past years. The results will help you decide how hot, cold, wet, or windy it might be!

Date:

Astronomy

Mar. 09, 2013 Rise Set
Actual Time 6:06 AM PST 5:52 PM PST
Civil Twilight 5:42 AM PST 6:17 PM PST
Nautical Twilight 5:13 AM PST 6:46 PM PST
Astronomical Twilight 4:44 AM PST 7:14 PM PST
Moon 4:28 AM PST (3/9) 4:03 PM PST (3/9)
Length of Visible Light 12h 35m
Length of Day
11h 45m
Waning Crescent, 5% of the Moon is Illuminated
Mar 9
Waning Crescent
Mar 11
New
Mar 19
First Quarter
Mar 27
Full
Apr 2
Last Quarter

Hourly Weather History & Observations

Time (PST) Temp. Dew Point Humidity Pressure Visibility Wind Dir Wind Speed Gust Speed Precip Events Conditions
12:53 AM 50.0 °F 46.9 °F 89% 30.05 in 10.0 mi ENE 3.5 mph - 0.01 in   Overcast
1:53 AM 52.0 °F 46.9 °F 83% 30.05 in 10.0 mi Calm Calm - 0.02 in   Overcast
2:30 AM 53.6 °F 44.6 °F 72% 30.05 in 10.0 mi NW 5.8 mph - N/A   Overcast
2:53 AM 53.1 °F 45.0 °F 74% 30.05 in 10.0 mi West 9.2 mph 17.3 mph 0.01 in   Overcast
3:17 AM 53.6 °F 44.6 °F 72% 30.05 in 10.0 mi West 8.1 mph - N/A   Overcast
3:53 AM 53.1 °F 44.1 °F 71% 30.05 in 8.0 mi Variable 3.5 mph - 0.00 in Rain Light Rain
4:19 AM 51.8 °F 44.6 °F 76% 30.06 in 7.0 mi WNW 9.2 mph - 0.00 in Rain Light Rain
4:53 AM 51.1 °F 45.0 °F 80% 30.06 in 7.0 mi WNW 6.9 mph - 0.00 in Rain Light Rain
5:10 AM 51.8 °F 44.6 °F 76% 30.07 in 9.0 mi WNW 5.8 mph - 0.01 in Rain Light Rain
5:22 AM 51.8 °F 44.6 °F 76% 30.07 in 8.0 mi WNW 5.8 mph - 0.01 in Rain Light Rain
5:53 AM 53.1 °F 44.1 °F 71% 30.08 in 10.0 mi Variable 6.9 mph - 0.01 in   Overcast
6:07 AM 53.6 °F 42.8 °F 67% 30.08 in 10.0 mi WNW 6.9 mph - N/A   Overcast
6:53 AM 53.1 °F 43.0 °F 69% 30.10 in 10.0 mi WNW 5.8 mph - N/A   Overcast
7:53 AM 53.1 °F 43.0 °F 69% 30.13 in 10.0 mi Variable 4.6 mph - 0.00 in   Overcast
8:23 AM 53.6 °F 42.8 °F 67% 30.14 in 10.0 mi WNW 6.9 mph - N/A   Overcast
8:46 AM 53.6 °F 42.8 °F 67% 30.14 in 10.0 mi West 4.6 mph - N/A   Overcast
8:53 AM 54.0 °F 43.0 °F 66% 30.14 in 10.0 mi West 4.6 mph - N/A   Overcast
9:53 AM 55.0 °F 43.0 °F 64% 30.15 in 10.0 mi Variable 5.8 mph - N/A   Mostly Cloudy
10:53 AM 55.9 °F 42.1 °F 60% 30.15 in 10.0 mi West 10.4 mph - N/A   Overcast
11:11 AM 55.4 °F 42.8 °F 63% 30.16 in 10.0 mi WSW 8.1 mph 17.3 mph N/A   Overcast
11:33 AM 57.2 °F 41.0 °F 55% 30.16 in 10.0 mi SW 6.9 mph - N/A   Overcast
11:53 AM 57.0 °F 41.0 °F 55% 30.15 in 10.0 mi SSW 6.9 mph - N/A   Overcast
12:53 PM 57.0 °F 41.0 °F 55% 30.13 in 10.0 mi SSW 9.2 mph - N/A   Overcast
1:53 PM 57.9 °F 42.1 °F 56% 30.13 in 10.0 mi SW 8.1 mph - N/A   Overcast
2:53 PM 57.9 °F 41.0 °F 53% 30.13 in 10.0 mi WSW 10.4 mph - N/A   Mostly Cloudy
3:53 PM 57.9 °F 39.9 °F 51% 30.13 in 10.0 mi WSW 8.1 mph - N/A   Scattered Clouds
4:53 PM 57.0 °F 43.0 °F 59% 30.14 in 10.0 mi Variable 3.5 mph - N/A   Clear
5:53 PM 55.0 °F 44.1 °F 67% 30.14 in 10.0 mi West 3.5 mph - N/A   Clear
6:53 PM 55.0 °F 44.1 °F 67% 30.16 in 10.0 mi Calm Calm - N/A   Clear
7:53 PM 54.0 °F 44.1 °F 69% 30.18 in 10.0 mi Calm Calm - N/A   Clear
8:53 PM 53.1 °F 45.0 °F 74% 30.19 in 10.0 mi Calm Calm - N/A   Clear
9:53 PM 52.0 °F 44.1 °F 74% 30.20 in 10.0 mi Calm Calm - N/A   Clear
10:53 PM 50.0 °F 43.0 °F 77% 30.20 in 10.0 mi Calm Calm - N/A   Clear
11:53 PM 50.0 °F 42.1 °F 74% 30.20 in 10.0 mi Calm Calm - N/A   Clear